QPF
0.00 0.00 0.00 0.00 0.00 0.00 0.00 0.00 0.00 0.00 0.00 0.00 0.00 0.00 0.01 0.01 0.02 0.02 0.00 0.01 0.03 0.03 0.00 0.00 0.00 0.00 0.00 0.00 0.00 0.00 0.00 0.00 0.00 0.01 0.04 0.03 0.00 0.00 0.00 0.00 0.01 0.04 0.09 0.03 0.00 0.01 0.00 0.00 0.00 0.00 0.00 0.00 0.00 0.00
0.00 0.00 0.00 0.00 0.00 0.00 0.00 0.00 0.00 0.00 0.00 0.00 0.00 0.00 0.00 0.00 0.01 0.03 0.00 0.00 0.01 0.02 0.00 0.00 0.00 0.00 0.00 0.00 0.00 0.00 0.00 0.01 0.01 0.05 0.23 0.15 0.05 0.01 0.01 0.02 0.06 0.08 0.09 0.04 0.01 0.02 0.04 0.01 0.04 0.03 0.01 0.00 0.00 0.00
0.00 0.00 0.00 0.00 0.00 0.00 0.00 0.00 0.00 0.00 0.00 0.00 0.00 0.00 0.00 0.00 0.01 0.04 0.00 0.00 0.01 0.01 0.00 0.00 0.00 0.00 0.00 0.00 0.00 0.01 0.07 0.02 0.01 0.03 0.14 0.17 0.20 0.16 0.06 0.05 0.10 0.12 0.13 0.04 0.04 0.02 0.06 0.04 0.08 0.06 0.03 0.00 0.00 0.00
0.00 0.00 0.00 0.00 0.00 0.00 0.00 0.00 0.00 0.00 0.00 0.00 0.00 0.00 0.01 0.01 0.01 0.01 0.00 0.00 0.01 0.03 0.03 0.00 0.00 0.00 0.00 0.00 0.00 0.00 0.01 0.00 0.01 0.03 0.07 0.05 0.14 0.46 0.31 0.10 0.16 0.13 0.10 0.06 0.06 0.02 0.06 0.17 0.07 0.05 0.03 0.02 0.01 0.00
0.00 0.00 0.00 0.00 0.00 0.00 0.00 0.00 0.00 0.00 0.00 0.00 0.00 0.00 0.01 0.01 0.01 0.00 0.00 0.00 0.00 0.01 0.01 0.00 0.00 0.00 0.00 0.00 0.01 0.00 0.00 0.00 0.00 0.00 0.00 0.00 0.16 0.38 0.42 0.16 0.18 0.23 0.13 0.11 0.03 0.01 0.06 0.20 0.15 0.02 0.01 0.02 0.02 0.02
0.00 0.00 0.00 0.00 0.00 0.00 0.00 0.00 0.00 0.00 0.00 0.00 0.00 0.00 0.00 0.01 0.01 0.00 0.00 0.00 0.00 0.01 0.04 0.00 0.00 0.00 0.01 0.02 0.03 0.00 0.00 0.00 0.00 0.00 0.00 0.01 0.13 0.42 0.47 0.17 0.27 0.18 0.12 0.12 0.03 0.03 0.04 0.11 0.19 0.04 0.01 0.00 0.01 0.00
0.00 0.00 0.00 0.00 0.00 0.00 0.00 0.00 0.00 0.00 0.00 0.00 0.00 0.00 0.00 0.00 0.02 0.02 0.02 0.00 0.00 0.04 0.06 0.01 0.00 0.00 0.00 0.02 0.00 0.00 0.00 0.00 0.00 0.00 0.00 0.01 0.06 0.31 0.37 0.33 0.96 0.91 0.15 0.07 0.04 0.04 0.04 0.05 0.02 0.00 0.00 0.00 0.00 0.00
0.00 0.00 0.00 0.00 0.00 0.00 0.00 0.00 0.00 0.00 0.00 0.00 0.00 0.00 0.00 0.01 0.02 0.02 0.02 0.03 0.06 0.09 0.09 0.05 0.03 0.02 0.00 0.00 0.00 0.00 0.00 0.00 0.00 0.01 0.01 0.03 0.11 0.35 0.33 0.26 0.54 1.06 0.28 0.06 0.03 0.04 0.02 0.01 0.01 0.02 0.01 0.00 0.00 0.00
0.00 0.00 0.00 0.00 0.00 0.00 0.00 0.00 0.00 0.00 0.00 0.00 0.00 0.00 0.00 0.00 0.01 0.01 0.03 0.04 0.08 0.13 0.11 0.06 0.07 0.06 0.10 0.04 0.03 0.02 0.03 0.05 0.03 0.04 0.12 0.23 0.29 0.32 0.19 0.04 0.09 0.62 0.21 0.07 0.03 0.08 0.02 0.01 0.01 0.01 0.00 0.00 0.00 0.00
0.00 0.00 0.00 0.00 0.00 0.00 0.00 0.00 0.00 0.00 0.00 0.00 0.00 0.00 0.00 0.00 0.00 0.02 0.06 0.08 0.14 0.18 0.14 0.11 0.09 0.05 0.07 0.07 0.14 0.17 0.14 0.12 0.18 0.24 0.36 0.24 0.22 0.29 0.19 0.10 0.20 0.28 0.18 0.10 0.02 0.10 0.07 0.00 0.00 0.00 0.00 0.00 0.00 0.00
0.00 0.00 0.00 0.00 0.00 0.00 0.00 0.00 0.00 0.00 0.00 0.00 0.00 0.00 0.00 0.00 0.02 0.04 0.09 0.16 0.14 0.26 0.21 0.13 0.11 0.08 0.06 0.12 0.10 0.17 0.20 0.19 0.15 0.12 0.10 0.09 0.11 0.18 0.28 0.28 0.24 0.19 0.14 0.05 0.00 0.05 0.05 0.00 0.00 0.00 0.00 0.00 0.00 0.00
0.00 0.00 0.00 0.00 0.00 0.00 0.00 0.00 0.00 0.00 0.00 0.00 0.00 0.00 0.00 0.00 0.05 0.11 0.11 0.23 0.32 0.30 0.26 0.08 0.08 0.06 0.16 0.16 0.15 0.14 0.16 0.17 0.18 0.06 0.07 0.23 0.34 0.39 0.42 0.47 0.41 0.25 0.16 0.12 0.06 0.03 0.02 0.01 0.01 0.01 0.00 0.00 0.00 0.00
0.00 0.00 0.00 0.00 0.00 0.00 0.00 0.00 0.00 0.00 0.00 0.00 0.00 0.00 0.00 0.01 0.13 0.36 0.36 0.23 0.20 0.16 0.08 0.05 0.17 0.09 0.09 0.11 0.08 0.11 0.16 0.17 0.10 0.10 0.30 0.39 0.45 0.46 0.49 0.47 0.35 0.19 0.12 0.11 0.09 0.09 0.06 0.03 0.03 0.03 0.03 0.01 0.01 0.00
0.00 0.00 0.00 0.00 0.00 0.00 0.00 0.00 0.00 0.00 0.00 0.00 0.00 0.01 0.02 0.08 0.20 0.35 0.24 0.06 0.02 0.01 0.00 0.00 0.01 0.01 0.00 0.01 0.04 0.06 0.05 0.07 0.15 0.28 0.42 0.38 0.30 0.21 0.23 0.28 0.21 0.13 0.12 0.08 0.04 0.03 0.04 0.04 0.03 0.02 0.01 0.00 0.00 0.00
0.00 0.00 0.00 0.00 0.00 0.00 0.00 0.00 0.00 0.00 0.00 0.00 0.01 0.04 0.02 0.04 0.08 0.07 0.02 0.00 0.00 0.00 0.00 0.00 0.00 0.00 0.00 0.00 0.00 0.01 0.04 0.15 0.31 0.41 0.44 0.28 0.18 0.08 0.03 0.02 0.02 0.03 0.02 0.01 0.01 0.00 0.00 0.00 0.00 0.00 0.00 0.00 0.00 0.00
0.00 0.00 0.00 0.00 0.00 0.00 0.00 0.00 0.00 0.00 0.00 0.00 0.01 0.01 0.01 0.00 0.00 0.00 0.00 0.00 0.00 0.00 0.00 0.00 0.00 0.00 0.00 0.00 0.01 0.05 0.16 0.30 0.28 0.14 0.10 0.07 0.03 0.02 0.01 0.00 0.00 0.00 0.00 0.00 0.00 0.00 0.00 0.00 0.00 0.00 0.00 0.00 0.00 0.00
0.00 0.00 0.00 0.00 0.00 0.00 0.00 0.00 0.00 0.00 0.00 0.01 0.02 0.01 0.01 0.00 0.00 0.00 0.01 0.04 0.01 0.00 0.00 0.00 0.00 0.01 0.01 0.03 0.09 0.20 0.28 0.19 0.09 0.02 0.01 0.00 0.00 0.00 0.00 0.00 0.00 0.00 0.00 0.00 0.00 0.00 0.00 0.00 0.00 0.00 0.00 0.00 0.00 0.00
0.00 0.00 0.00 0.00 0.00 0.00 0.00 0.00 0.00 0.00 0.00 0.01 0.00 0.00 0.00 0.00 0.00 0.00 0.00 0.00 0.00 0.00 0.00 0.00 0.01 0.03 0.09 0.14 0.16 0.10 0.05 0.02 0.01 0.00 0.00 0.00 0.00 0.00 0.00 0.00 0.00 0.00 0.00 0.00 0.00 0.00 0.00 0.00 0.00 0.00 0.00 0.00 0.00 0.00
0.00 0.00 0.00 0.00 0.00 0.00 0.00 0.00 0.00 0.00 0.01 0.00 0.00 0.00 0.00 0.00 0.00 0.00 0.00 0.00 0.00 0.00 0.00 0.00 0.01 0.06 0.11 0.12 0.06 0.01 0.00 0.00 0.00 0.00 0.00 0.00 0.00 0.00 0.00 0.00 0.00 0.00 0.00 0.00 0.00 0.00 0.00 0.00 0.00 0.00 0.00 0.00 0.00 0.00
0.00 0.00 0.00 0.00 0.00 0.00 0.00 0.00 0.00 0.00 0.00 0.00 0.00 0.00 0.00 0.00 0.00 0.00 0.00 0.00 0.00 0.00 0.00 0.00 0.00 0.00 0.00 0.00 0.00 0.00 0.00 0.00 0.00 0.00 0.00 0.00 0.00 0.00 0.00 0.00 0.00 0.00 0.00 0.00 0.00 0.00 0.00 0.00 0.00 0.00 0.00 0.00 0.00 0.00
0.00 0.00 0.00 0.00 0.00 0.00 0.00 0.00 0.00 0.00 0.00 0.00 0.00 0.00 0.00 0.00 0.00 0.00 0.00 0.00 0.00 0.00 0.00 0.00 0.00 0.00 0.00 0.00 0.00 0.00 0.00 0.00 0.00 0.00 0.00 0.00 0.00 0.00 0.00 0.00 0.00 0.00 0.00 0.00 0.00 0.00 0.00 0.00 0.00 0.00 0.00 0.00 0.00 0.00
0.00 0.00 0.00 0.00 0.00 0.00 0.00 0.00 0.00 0.01 0.01 0.00 0.00 0.00 0.00 0.00 0.00 0.00 0.00 0.00 0.00 0.00 0.00 0.00 0.00 0.00 0.00 0.00 0.00 0.00 0.00 0.00 0.00 0.00 0.00 0.00 0.00 0.00 0.00 0.00 0.00 0.00 0.00 0.00 0.00 0.00 0.00 0.00 0.00 0.00 0.00 0.00 0.00 0.00
0.00 0.00 0.00 0.00 0.00 0.00 0.01 0.01 0.02 0.07 0.15 0.08 0.01 0.00 0.00 0.00 0.00 0.00 0.00 0.00 0.00 0.00 0.00 0.00 0.00 0.00 0.00 0.00 0.00 0.00 0.00 0.00 0.00 0.00 0.00 0.00 0.00 0.00 0.00 0.00 0.00 0.00 0.00 0.00 0.00 0.00 0.00 0.00 0.00 0.00 0.00 0.00 0.00 0.00
0.00 0.00 0.00 0.00 0.00 0.00 0.02 0.00 0.01 0.08 0.12 0.10 0.02 0.00 0.00 0.01 0.00 0.00 0.00 0.00 0.00 0.00 0.00 0.00 0.00 0.00 0.00 0.00 0.00 0.00 0.00 0.00 0.00 0.00 0.00 0.00 0.00 0.00 0.00 0.00 0.00 0.00 0.00 0.00 0.00 0.00 0.00 0.00 0.00 0.00 0.00 0.00 0.00 0.00
0.00 0.00 0.00 0.00 0.00 0.00 0.00 0.00 0.00 0.01 0.03 0.01 0.00 0.00 0.00 0.00 0.00 0.00 0.00 0.00 0.00 0.00 0.00 0.00 0.00 0.00 0.00 0.00 0.00 0.00 0.00 0.00 0.00 0.00 0.00 0.00 0.00 0.00 0.00 0.00 0.00 0.00 0.00 0.00 0.00 0.00 0.00 0.00 0.00 0.00 0.00 0.00 0.00 0.00
0.00 0.00 0.00 0.00 0.00 0.00 0.00 0.00 0.00 0.00 0.00 0.00 0.00 0.00 0.00 0.00 0.00 0.00 0.00 0.00 0.00 0.00 0.00 0.00 0.00 0.00 0.00 0.00 0.00 0.00 0.00 0.00 0.00 0.00 0.00 0.00 0.00 0.00 0.00 0.00 0.00 0.00 0.00 0.00 0.00 0.00 0.00 0.00 0.00 0.00 0.00 0.00 0.00 0.00
0.00 0.00 0.00 0.00 0.00 0.00 0.00 0.00 0.00 0.00 0.00 0.00 0.00 0.00 0.00 0.00 0.00 0.00 0.00 0.00 0.00 0.00 0.00 0.00 0.00 0.00 0.00 0.00 0.00 0.00 0.00 0.00 0.00 0.00 0.00 0.00 0.00 0.00 0.00 0.00 0.00 0.00 0.00 0.00 0.00 0.00 0.00 0.00 0.00 0.00 0.00 0.00 0.00 0.00
0.00 0.00 0.00 0.00 0.00 0.00 0.00 0.00 0.00 0.00 0.00 0.00 0.00 0.00 0.00 0.00 0.00 0.00 0.00 0.00 0.00 0.00 0.00 0.00 0.00 0.00 0.00 0.00 0.00 0.00 0.00 0.00 0.00 0.00 0.00 0.00 0.00 0.00 0.00 0.00 0.00 0.00 0.00 0.00 0.00 0.00 0.00 0.00 0.00 0.00 0.00 0.00 0.00 0.00
0.00 0.00 0.00 0.00 0.00 0.00 0.00 0.00 0.00 0.00 0.00 0.00 0.00 0.00 0.00 0.00 0.00 0.00 0.00 0.00 0.00 0.00 0.00 0.00 0.00 0.00 0.00 0.00 0.00 0.00 0.00 0.00 0.00 0.00 0.00 0.00 0.00 0.00 0.00 0.00 0.00 0.00 0.00 0.00 0.00 0.00 0.00 0.00 0.00 0.00 0.00 0.00 0.00 0.00
0.00 0.00 0.00 0.00 0.00 0.00 0.00 0.00 0.00 0.00 0.00 0.00 0.00 0.00 0.00 0.00 0.00 0.00 0.00 0.00 0.00 0.00 0.00 0.00 0.00 0.00 0.00 0.00 0.00 0.00 0.00 0.00 0.00 0.00 0.00 0.00 0.00 0.00 0.00 0.00 0.00 0.00 0.00 0.00 0.00 0.00 0.00 0.00 0.00 0.00 0.00 0.00 0.00 0.00
0.00 0.00 0.00 0.00 0.00 0.01 0.02 0.03 0.03 0.03 0.01 0.00 0.00 0.00 0.00 0.00 0.00 0.00 0.00 0.00 0.00 0.00 0.00 0.00 0.00 0.00 0.00 0.00 0.00 0.00 0.00 0.00 0.00 0.00 0.00 0.00 0.00 0.00 0.00 0.00 0.00 0.00 0.00 0.00 0.00 0.00 0.00 0.00 0.00 0.00 0.00 0.00 0.00 0.00
0.00 0.00 0.00 0.00 0.00 0.00 0.00 0.00 0.01 0.01 0.00 0.00 0.00 0.00 0.00 0.00 0.00 0.00 0.00 0.00 0.00 0.00 0.00 0.00 0.00 0.00 0.00 0.00 0.00 0.00 0.00 0.00 0.00 0.00 0.00 0.00 0.00 0.00 0.00 0.00 0.00 0.00 0.00 0.00 0.00 0.00 0.00 0.00 0.00 0.00 0.00 0.00 0.00 0.00
0.00 0.00 0.00 0.00 0.00 0.00 0.00 0.02 0.03 0.03 0.00 0.00 0.00 0.00 0.00 0.00 0.00 0.00 0.00 0.00 0.00 0.00 0.00 0.00 0.00 0.00 0.00 0.00 0.00 0.00 0.00 0.00 0.00 0.00 0.00 0.00 0.00 0.00 0.00 0.00 0.00 0.00 0.00 0.00 0.00 0.00 0.00 0.00 0.00 0.00 0.00 0.00 0.00 0.00
MSLP
1024.76 1024.32 1023.77 1023.20 1022.70 1022.11 1021.51 1020.99 1020.34 1019.72 1019.18 1018.60 1018.11 1017.61 1017.11 1016.73 1016.42 1016.68 1016.59 1016.41 1016.63 1015.77 1014.26 1013.95 1013.78 1013.62 1013.46 1013.57 1013.26 1012.72 1012.45 1011.86 1011.84 1011.68 1010.81 1009.57 1008.44 1007.39 1006.16 1004.17 1002.84 1002.25 1001.97 1002.51 1001.85 1000.69 999.14 996.55 994.96 994.58 994.10 991.65 989.66 989.18
1024.51 1024.00 1023.38 1022.82 1022.29 1021.67 1021.02 1020.42 1019.88 1019.21 1018.66 1017.97 1017.43 1016.88 1016.44 1016.01 1015.72 1015.65 1015.93 1015.63 1015.68 1015.62 1013.61 1012.97 1012.47 1011.89 1011.79 1011.84 1012.47 1012.65 1012.24 1011.79 1011.49 1011.32 1010.88 1009.94 1008.50 1007.30 1005.66 1003.99 1001.74 1001.37 999.33 999.58 999.39 998.59 997.76 997.30 997.23 996.00 994.88 993.67 991.83 990.58
1024.17 1023.63 1023.00 1022.42 1021.87 1021.16 1020.47 1020.07 1019.21 1018.37 1017.80 1017.24 1016.80 1016.05 1015.54 1015.20 1015.04 1015.05 1015.24 1015.20 1015.35 1014.72 1012.81 1011.77 1010.54 1009.93 1010.35 1010.56 1010.99 1011.77 1011.14 1011.01 1010.86 1010.39 1010.60 1009.92 1009.18 1007.51 1005.49 1003.35 1001.75 999.65 998.38 998.19 997.65 998.03 997.27 996.89 997.09 996.35 995.36 994.53 993.03 992.84
1023.72 1023.17 1022.48 1021.94 1021.33 1020.63 1019.95 1019.21 1018.25 1017.61 1016.94 1016.25 1015.58 1015.00 1014.42 1014.21 1014.07 1014.07 1014.53 1014.46 1014.84 1014.55 1013.04 1010.09 1009.17 1009.05 1008.32 1008.87 1009.59 1009.73 1009.71 1009.96 1009.99 1010.10 1009.79 1009.35 1008.69 1007.38 1005.71 1003.54 1001.38 999.26 997.90 997.20 996.97 997.48 997.08 996.75 997.76 997.61 996.85 995.47 994.03 993.83
1023.22 1022.66 1021.99 1021.28 1020.79 1019.94 1019.35 1018.27 1017.41 1016.48 1015.91 1015.18 1014.42 1014.02 1013.65 1013.45 1013.39 1013.19 1013.33 1013.05 1013.36 1014.21 1012.72 1010.47 1008.86 1007.57 1007.17 1007.67 1008.01 1008.40 1009.19 1009.69 1009.55 1009.42 1008.91 1008.23 1007.37 1006.86 1004.71 1002.65 1000.33 998.85 997.30 996.93 996.56 996.33 996.24 997.40 998.73 998.38 997.34 995.90 995.26 994.97
1022.78 1022.09 1021.45 1020.54 1020.12 1019.33 1018.52 1017.39 1016.34 1015.71 1014.89 1014.14 1013.19 1012.68 1012.64 1012.52 1012.62 1013.13 1012.82 1012.08 1012.14 1012.81 1012.54 1011.19 1009.16 1007.46 1007.01 1006.98 1006.75 1007.23 1007.81 1009.00 1009.32 1008.52 1007.77 1006.53 1005.81 1005.72 1004.35 1001.73 999.16 998.20 997.49 996.82 996.40 996.35 997.16 998.52 999.14 998.40 997.34 996.12 995.67 995.45
1022.28 1021.54 1020.87 1019.77 1019.04 1018.31 1017.67 1016.59 1015.51 1014.80 1013.60 1012.48 1011.72 1011.75 1011.74 1011.77 1012.14 1012.43 1012.02 1011.22 1011.48 1012.04 1012.35 1011.35 1009.64 1007.53 1006.45 1006.14 1006.25 1006.56 1006.96 1007.53 1007.67 1007.81 1006.12 1005.19 1004.41 1004.17 1003.01 1000.49 998.71 997.75 997.12 996.85 996.58 995.90 997.01 997.37 999.00 997.80 997.73 996.65 996.49 995.79
1021.85 1021.01 1020.12 1019.34 1018.29 1017.60 1016.61 1015.73 1015.08 1013.77 1012.16 1011.28 1010.87 1010.48 1010.50 1010.84 1011.21 1011.10 1010.20 1010.75 1011.06 1011.79 1011.98 1011.11 1009.74 1008.31 1007.17 1006.60 1006.22 1006.43 1006.70 1006.66 1006.29 1005.58 1004.72 1004.26 1003.63 1002.85 1000.90 998.98 997.91 995.66 996.63 996.85 996.92 996.22 996.77 998.30 998.44 998.20 997.91 997.54 997.15 996.67
1021.33 1020.45 1019.52 1018.57 1017.67 1016.84 1016.00 1014.69 1014.46 1012.91 1011.30 1010.72 1009.95 1009.52 1010.06 1010.44 1010.53 1009.86 1009.69 1009.88 1010.71 1011.94 1011.40 1010.70 1009.79 1008.69 1007.64 1007.07 1006.51 1006.24 1006.39 1006.50 1006.01 1005.45 1005.01 1004.53 1003.40 1002.12 999.98 998.64 997.65 995.92 996.76 997.54 997.78 997.39 997.30 997.60 997.63 999.22 999.10 998.46 997.76 997.90
1020.64 1019.87 1019.00 1018.00 1016.91 1016.16 1015.48 1014.19 1013.67 1012.25 1010.87 1010.13 1009.65 1009.80 1009.95 1010.14 1009.40 1009.78 1009.87 1010.29 1010.98 1011.17 1011.01 1010.33 1009.51 1008.68 1008.01 1006.84 1006.81 1006.92 1006.49 1006.37 1005.96 1005.34 1004.96 1004.45 1003.07 1001.52 1000.08 999.45 998.31 997.90 997.99 997.97 998.02 998.04 997.24 999.60 1000.01 999.43 999.96 999.13 998.91 998.85
1019.90 1019.23 1018.47 1017.62 1016.47 1015.42 1015.01 1013.83 1013.12 1012.09 1010.77 1010.87 1011.01 1010.75 1010.26 1009.78 1009.62 1009.59 1009.82 1010.45 1010.57 1010.50 1010.18 1009.30 1008.65 1008.00 1007.07 1006.67 1006.15 1006.04 1005.94 1005.99 1005.71 1005.04 1004.98 1004.63 1003.54 1002.16 1001.14 1000.24 999.89 999.39 999.13 998.94 999.02 999.08 999.88 999.75 999.44 999.72 999.52 999.07 999.22 998.88
1019.23 1018.43 1017.86 1017.27 1016.16 1014.77 1014.27 1013.30 1012.83 1012.64 1012.37 1011.89 1011.82 1011.25 1010.78 1010.09 1009.70 1009.92 1009.59 1010.01 1010.04 1009.34 1008.45 1007.92 1007.13 1006.60 1006.20 1006.13 1005.93 1005.99 1005.73 1005.80 1005.44 1005.21 1005.29 1005.53 1004.57 1003.05 1001.74 1001.02 1000.43 1000.32 1000.04 999.88 999.86 999.68 999.63 999.82 1000.21 1000.02 999.96 999.99 1000.11 1000.11
1018.55 1017.91 1017.23 1016.51 1015.67 1014.58 1013.60 1013.04 1012.22 1012.07 1011.62 1011.54 1011.56 1011.31 1010.87 1010.31 1009.94 1010.07 1009.31 1008.68 1008.05 1007.82 1007.29 1006.83 1006.32 1005.98 1005.76 1005.78 1005.78 1005.65 1005.31 1005.46 1005.50 1005.98 1006.37 1006.22 1004.71 1003.55 1002.51 1001.79 1001.56 1001.14 1000.86 1000.55 1000.38 1000.42 1000.57 1000.81 1000.74 1000.76 1000.80 1000.63 1000.18 999.61
1018.01 1017.29 1016.50 1015.72 1014.87 1014.24 1013.43 1012.45 1011.74 1011.46 1011.36 1011.89 1012.16 1011.82 1011.61 1010.94 1010.66 1009.97 1009.04 1008.21 1007.31 1006.60 1006.06 1006.11 1005.99 1005.89 1005.66 1005.56 1005.60 1005.76 1006.31 1006.40 1006.61 1006.87 1006.80 1006.12 1005.44 1004.79 1003.97 1003.35 1002.49 1002.31 1001.80 1001.52 1001.41 1001.36 1001.23 1001.03 1001.32 1001.25 1000.91 1000.44 1000.16 1000.58
1017.39 1016.58 1015.71 1014.83 1014.24 1013.49 1012.73 1011.98 1011.59 1011.46 1011.70 1012.21 1012.49 1013.22 1012.71 1012.17 1010.77 1009.77 1008.63 1007.33 1006.24 1005.59 1005.74 1005.88 1005.92 1006.00 1006.21 1006.42 1006.95 1007.14 1007.28 1007.93 1008.02 1007.54 1007.07 1007.02 1006.47 1005.63 1005.08 1004.52 1003.93 1003.32 1002.86 1002.60 1002.23 1002.01 1001.80 1001.81 1001.69 1001.70 1001.66 1001.70 1001.61 1001.41
1016.97 1015.99 1015.14 1014.56 1013.95 1013.09 1012.35 1011.78 1011.64 1011.83 1012.21 1012.66 1013.79 1014.21 1013.52 1012.40 1011.11 1009.30 1008.24 1007.50 1006.27 1005.39 1005.67 1006.28 1006.96 1007.32 1008.06 1008.47 1008.60 1008.86 1009.03 1009.03 1009.07 1008.65 1008.13 1007.40 1006.75 1006.57 1006.16 1005.68 1005.24 1004.64 1004.29 1004.04 1003.76 1003.66 1003.63 1003.61 1003.60 1003.63 1003.60 1003.32 1003.15 1003.04
1016.74 1016.21 1014.87 1014.48 1013.84 1012.87 1012.34 1012.27 1012.12 1012.51 1013.44 1014.46 1015.23 1014.80 1014.33 1013.54 1012.75 1011.49 1010.06 1008.84 1007.57 1006.77 1006.87 1007.35 1008.90 1010.00 1010.09 1010.29 1010.09 1010.01 1010.13 1010.09 1009.69 1009.26 1008.75 1008.13 1007.70 1007.47 1007.02 1006.64 1006.42 1006.03 1005.77 1005.50 1005.49 1005.53 1005.35 1005.15 1004.87 1004.86 1005.08 1005.19 1004.77 1004.72
1016.75 1015.77 1015.29 1014.71 1014.51 1013.69 1013.02 1012.90 1012.99 1014.18 1015.29 1015.84 1015.94 1015.66 1014.92 1014.17 1013.57 1012.45 1011.46 1010.26 1009.03 1008.88 1009.02 1009.93 1010.81 1011.35 1011.70 1011.90 1011.82 1011.82 1011.29 1010.46 1010.09 1009.99 1009.67 1009.17 1008.51 1008.10 1007.91 1008.09 1007.96 1007.78 1007.53 1007.42 1007.36 1007.33 1007.08 1006.82 1006.98 1007.09 1006.69 1006.50 1006.17 1006.32
1016.52 1015.80 1015.14 1014.69 1014.95 1014.86 1014.51 1014.01 1014.10 1015.38 1016.10 1016.34 1016.34 1015.82 1015.36 1014.94 1014.18 1013.44 1012.47 1011.67 1011.16 1010.66 1010.70 1011.67 1013.03 1014.00 1014.16 1013.98 1013.59 1012.91 1012.27 1011.84 1011.31 1010.95 1010.89 1010.34 1009.67 1009.58 1009.61 1009.45 1009.36 1009.32 1009.23 1009.29 1009.15 1009.09 1009.02 1008.80 1008.76 1008.52 1008.29 1008.13 1008.17 1008.23
1015.59 1015.15 1014.88 1014.47 1014.75 1014.88 1015.06 1015.11 1014.77 1015.73 1016.59 1016.98 1016.57 1016.44 1016.42 1016.31 1015.64 1014.79 1014.20 1013.52 1012.92 1012.78 1013.32 1014.60 1015.51 1015.68 1015.28 1014.85 1014.37 1014.03 1013.53 1012.87 1012.07 1011.94 1012.18 1011.87 1011.48 1010.98 1011.13 1011.08 1011.09 1011.03 1010.84 1010.68 1010.71 1010.64 1010.47 1010.30 1010.17 1010.08 1009.88 1009.80 1009.72 1010.03
1015.54 1015.03 1014.69 1014.75 1014.85 1015.03 1015.47 1015.56 1015.93 1016.16 1016.56 1016.77 1016.68 1016.91 1017.10 1016.73 1016.43 1016.07 1015.81 1015.23 1014.76 1015.52 1016.18 1016.45 1016.35 1015.97 1015.49 1015.04 1014.55 1014.18 1013.78 1013.57 1013.70 1013.48 1013.36 1012.99 1012.60 1012.27 1012.15 1012.17 1012.16 1012.16 1012.25 1012.51 1012.50 1012.53 1012.38 1012.42 1012.02 1011.51 1011.25 1011.18 1011.20 1011.21
1016.24 1015.55 1015.39 1014.95 1015.19 1015.36 1015.52 1015.59 1016.02 1016.45 1016.91 1017.00 1017.12 1017.23 1017.46 1017.50 1017.41 1017.15 1017.01 1017.06 1017.30 1017.44 1017.31 1017.19 1016.92 1016.67 1016.25 1015.86 1015.62 1015.34 1015.04 1014.61 1014.50 1014.37 1014.19 1013.89 1013.85 1013.71 1013.67 1013.76 1013.59 1013.65 1013.67 1013.74 1013.67 1013.63 1013.53 1013.32 1012.73 1012.29 1012.18 1012.19 1012.00 1012.21
1016.18 1015.98 1015.88 1015.65 1015.68 1015.82 1015.85 1015.62 1016.05 1016.60 1016.89 1017.23 1017.17 1017.39 1017.57 1017.62 1017.58 1017.38 1018.31 1018.53 1018.34 1017.94 1017.66 1017.40 1017.19 1017.08 1017.00 1016.79 1016.28 1016.13 1015.91 1015.73 1015.79 1015.70 1015.52 1015.30 1015.10 1014.95 1014.80 1014.55 1014.16 1014.32 1014.51 1014.56 1014.34 1014.24 1014.03 1013.57 1013.32 1012.94 1012.83 1012.96 1013.03 1013.19
1016.28 1016.50 1016.46 1016.47 1016.50 1016.24 1015.77 1015.68 1015.98 1016.49 1016.94 1017.38 1017.62 1017.81 1017.79 1017.80 1017.91 1018.53 1019.20 1019.18 1018.75 1018.17 1018.00 1017.82 1017.54 1017.82 1017.77 1017.73 1017.96 1017.63 1017.25 1016.72 1016.62 1016.60 1016.55 1016.39 1016.28 1016.24 1015.99 1015.82 1015.55 1015.38 1015.24 1015.07 1014.80 1014.69 1014.51 1014.35 1013.97 1013.84 1013.97 1014.10 1014.11 1014.18
1017.18 1017.36 1017.11 1017.14 1016.95 1016.70 1016.38 1016.15 1015.99 1016.23 1016.79 1017.26 1017.58 1017.83 1017.93 1017.95 1018.62 1019.21 1019.66 1019.49 1019.08 1018.62 1018.45 1018.24 1018.15 1018.53 1018.86 1018.95 1018.70 1018.35 1017.99 1017.74 1017.61 1017.60 1017.47 1017.13 1017.10 1016.90 1016.65 1016.43 1016.28 1016.17 1015.99 1015.81 1015.78 1015.57 1015.43 1015.15 1014.97 1014.86 1014.78 1014.74 1014.78 1014.81
1017.18 1017.39 1017.44 1017.36 1017.30 1017.08 1016.94 1016.72 1016.54 1016.59 1016.69 1017.01 1017.37 1017.70 1017.81 1018.36 1019.08 1019.57 1019.57 1019.10 1018.88 1018.57 1018.42 1018.43 1018.55 1018.97 1019.27 1019.24 1019.40 1019.18 1019.05 1018.57 1018.30 1018.33 1018.40 1018.05 1017.84 1017.71 1017.54 1017.37 1017.09 1016.67 1016.26 1016.18 1015.93 1015.93 1015.93 1015.83 1015.73 1015.67 1015.64 1015.55 1015.44 1015.50
1017.14 1017.18 1017.18 1017.18 1017.17 1017.12 1016.94 1016.73 1016.56 1016.69 1016.94 1017.26 1017.49 1017.92 1018.37 1018.86 1019.37 1019.44 1018.80 1018.50 1018.44 1018.22 1018.05 1018.17 1018.33 1018.71 1019.24 1019.51 1019.52 1019.39 1019.21 1018.92 1018.73 1018.79 1018.72 1018.53 1018.29 1018.07 1017.89 1017.82 1017.62 1017.31 1016.54 1016.12 1016.04 1016.01 1016.13 1016.18 1016.23 1016.24 1016.26 1016.18 1016.13 1016.07
1016.53 1016.77 1017.01 1017.07 1016.96 1016.79 1016.77 1016.68 1016.96 1017.28 1017.41 1017.51 1017.80 1018.29 1018.50 1018.77 1019.01 1018.82 1018.44 1018.07 1017.93 1017.95 1018.26 1018.46 1018.62 1018.87 1019.24 1019.50 1019.66 1019.65 1019.52 1019.26 1018.94 1018.76 1018.66 1018.63 1018.53 1018.38 1018.14 1017.83 1017.47 1016.96 1016.64 1016.36 1016.24 1016.24 1016.47 1016.54 1016.55 1016.56 1016.56 1016.60 1016.56 1016.43
1016.18 1016.27 1016.41 1016.56 1016.54 1016.40 1016.31 1016.50 1016.70 1016.85 1017.08 1017.39 1017.91 1018.31 1018.43 1018.36 1018.06 1018.00 1018.09 1018.11 1018.25 1018.28 1018.79 1019.17 1019.53 1019.49 1019.71 1019.87 1019.94 1019.97 1019.94 1019.84 1019.81 1019.70 1019.73 1019.80 1019.62 1019.37 1018.81 1018.39 1018.03 1017.71 1017.43 1017.14 1016.82 1016.72 1016.70 1016.76 1016.82 1016.89 1016.97 1017.01 1017.02 1016.85
1015.13 1015.24 1015.73 1015.78 1015.91 1015.95 1015.75 1015.66 1015.89 1016.13 1016.58 1016.85 1017.31 1017.83 1017.98 1017.81 1017.56 1017.50 1017.79 1018.24 1018.43 1018.51 1018.77 1019.07 1019.42 1019.70 1020.12 1020.30 1020.43 1020.42 1020.22 1020.08 1019.96 1019.98 1020.08 1020.06 1020.06 1019.74 1019.27 1018.89 1018.60 1018.24 1017.88 1017.59 1017.54 1017.38 1017.15 1017.19 1017.19 1017.24 1017.33 1017.32 1017.33 1017.23
1014.07 1014.62 1014.75 1014.91 1014.99 1014.85 1014.80 1015.09 1015.60 1016.13 1016.29 1016.74 1017.08 1017.53 1017.83 1017.69 1017.60 1017.61 1017.86 1018.01 1018.18 1018.53 1018.96 1019.34 1019.59 1019.73 1020.07 1020.25 1020.23 1020.32 1020.26 1019.99 1019.75 1019.61 1019.61 1019.65 1019.62 1019.46 1019.28 1019.09 1018.83 1018.44 1018.13 1017.94 1017.93 1017.93 1017.83 1017.86 1017.89 1017.82 1017.76 1017.70 1017.59 1017.42
1013.39 1013.78 1014.07 1014.34 1014.44 1014.51 1014.65 1015.00 1015.59 1016.02 1016.32 1016.67 1016.96 1017.05 1017.42 1017.70 1017.92 1017.97 1017.98 1018.17 1018.47 1018.81 1018.96 1019.16 1019.52 1019.75 1019.54 1019.40 1019.41 1019.55 1019.42 1019.51 1019.60 1019.48 1019.38 1019.45 1019.47 1019.42 1019.31 1019.17 1018.99 1018.75 1018.55 1018.39 1018.29 1018.24 1018.16 1018.12 1018.12 1018.05 1017.99 1017.89 1017.71 1017.49
1012.60 1012.74 1013.01 1013.54 1014.12 1014.36 1014.45 1014.80 1015.19 1015.55 1015.80 1016.04 1016.28 1016.49 1016.87 1017.19 1017.52 1017.80 1017.72 1017.78 1017.99 1018.23 1018.65 1018.89 1019.10 1019.21 1019.22 1019.11 1019.14 1019.21 1019.29 1019.36 1019.36 1019.28 1019.38 1019.37 1019.38 1019.36 1019.30 1019.20 1019.09 1018.96 1018.88 1018.82 1018.68 1018.52 1018.45 1018.35 1018.28 1018.18 1018.06 1017.90 1017.71 1017.47
Thickness
5511 5505 5499 5492 5486 5481 5474 5466 5460 5454 5447 5440 5434 5429 5424 5418 5411 5404 5399 5396 5390 5397 5407 5410 5410 5411 5412 5411 5414 5420 5422 5428 5427 5433 5451 5458 5462 5477 5496 5530 5548 5562 5557 5562 5588 5598 5618 5684 5708 5708 5722 5757 5792 5804
5511 5504 5500 5495 5491 5486 5481 5473 5466 5460 5453 5448 5442 5438 5432 5428 5422 5414 5406 5403 5398 5396 5412 5415 5418 5423 5423 5422 5420 5417 5424 5424 5434 5432 5438 5445 5472 5477 5495 5512 5545 5542 5572 5582 5606 5621 5660 5673 5679 5704 5722 5734 5760 5782
5511 5506 5501 5498 5495 5491 5486 5480 5474 5470 5462 5457 5451 5448 5444 5438 5431 5424 5416 5409 5403 5405 5420 5424 5430 5438 5434 5432 5431 5422 5431 5435 5435 5442 5439 5448 5455 5478 5500 5516 5530 5560 5584 5589 5613 5632 5659 5675 5683 5698 5714 5727 5748 5757
5513 5508 5504 5501 5499 5496 5492 5490 5487 5481 5474 5469 5464 5460 5456 5450 5444 5437 5428 5422 5414 5412 5421 5441 5449 5444 5453 5448 5442 5441 5443 5442 5445 5445 5449 5452 5461 5472 5479 5504 5525 5554 5580 5600 5614 5629 5653 5671 5670 5679 5696 5716 5735 5742
5514 5511 5507 5505 5502 5501 5497 5499 5497 5494 5488 5482 5479 5472 5467 5460 5453 5449 5442 5439 5431 5419 5430 5444 5457 5465 5465 5461 5460 5455 5448 5445 5452 5454 5457 5461 5472 5469 5481 5507 5532 5555 5580 5593 5610 5637 5655 5661 5660 5672 5683 5700 5713 5723
5516 5513 5510 5510 5506 5505 5504 5508 5509 5504 5500 5496 5494 5490 5480 5473 5464 5454 5448 5452 5446 5435 5436 5447 5454 5468 5473 5471 5474 5470 5463 5454 5454 5460 5466 5474 5485 5483 5483 5519 5555 5565 5577 5590 5611 5635 5641 5643 5634 5642 5663 5685 5703 5712
5518 5516 5513 5515 5514 5512 5511 5515 5518 5515 5516 5513 5511 5501 5492 5484 5474 5464 5458 5463 5454 5445 5440 5447 5459 5476 5486 5485 5479 5477 5476 5470 5467 5464 5479 5493 5501 5500 5506 5539 5557 5565 5580 5595 5607 5635 5635 5649 5631 5650 5660 5675 5686 5702
5518 5518 5517 5517 5519 5517 5519 5522 5521 5526 5531 5530 5524 5517 5507 5497 5487 5482 5481 5469 5462 5453 5448 5456 5462 5472 5482 5487 5489 5484 5481 5483 5488 5494 5506 5508 5511 5519 5535 5556 5560 5575 5586 5592 5603 5627 5634 5626 5632 5644 5653 5664 5674 5685
5519 5519 5519 5521 5523 5522 5523 5531 5527 5535 5541 5538 5535 5528 5517 5506 5498 5498 5491 5481 5470 5460 5462 5467 5473 5483 5485 5490 5495 5497 5495 5494 5498 5504 5509 5509 5513 5531 5551 5561 5569 5585 5585 5591 5596 5613 5628 5632 5641 5634 5642 5652 5663 5668
5522 5521 5521 5523 5527 5527 5527 5535 5535 5541 5547 5545 5542 5535 5527 5515 5511 5503 5496 5487 5475 5472 5470 5472 5480 5484 5488 5500 5498 5495 5500 5500 5499 5508 5514 5512 5526 5545 5559 5568 5575 5581 5587 5592 5599 5608 5624 5614 5618 5627 5629 5641 5649 5653
5526 5525 5524 5524 5530 5531 5529 5537 5539 5543 5550 5542 5529 5532 5527 5518 5514 5507 5499 5486 5485 5482 5481 5487 5491 5495 5506 5508 5514 5513 5514 5508 5513 5529 5523 5524 5532 5546 5555 5566 5571 5577 5580 5584 5590 5601 5600 5611 5619 5626 5633 5641 5642 5648
5530 5530 5528 5527 5531 5536 5535 5539 5540 5540 5539 5537 5532 5531 5519 5521 5517 5509 5508 5495 5486 5501 5506 5512 5518 5518 5520 5517 5521 5518 5519 5518 5525 5530 5525 5518 5526 5542 5554 5562 5568 5573 5579 5587 5592 5597 5603 5608 5608 5616 5622 5623 5623 5626
5535 5533 5533 5533 5535 5539 5541 5541 5544 5544 5547 5542 5538 5536 5528 5529 5532 5506 5513 5528 5534 5522 5523 5527 5535 5531 5532 5530 5529 5529 5544 5541 5536 5520 5512 5514 5531 5549 5557 5560 5563 5572 5579 5584 5587 5590 5593 5596 5601 5603 5605 5609 5615 5625
5540 5539 5539 5540 5542 5541 5541 5545 5549 5551 5550 5545 5537 5526 5528 5529 5531 5530 5536 5540 5546 5547 5550 5545 5551 5548 5548 5548 5546 5549 5539 5534 5532 5526 5525 5540 5544 5547 5553 5555 5562 5566 5571 5578 5582 5585 5589 5593 5592 5595 5601 5609 5612 5608
5547 5546 5547 5548 5547 5548 5549 5552 5553 5553 5550 5548 5541 5519 5527 5531 5538 5541 5547 5555 5564 5566 5562 5560 5559 5558 5551 5548 5546 5542 5540 5525 5525 5537 5544 5541 5542 5549 5553 5556 5558 5562 5566 5569 5575 5579 5585 5586 5589 5591 5596 5597 5599 5602
5553 5555 5554 5553 5553 5555 5556 5557 5555 5553 5550 5547 5531 5527 5532 5541 5544 5554 5558 5560 5572 5580 5573 5566 5558 5554 5548 5541 5540 5532 5528 5530 5535 5538 5539 5545 5548 5548 5549 5552 5555 5558 5559 5561 5566 5568 5569 5571 5573 5574 5576 5580 5584 5586
5558 5557 5561 5558 5557 5561 5560 5558 5557 5555 5547 5535 5525 5524 5526 5533 5535 5543 5552 5556 5568 5576 5574 5568 5551 5539 5539 5535 5536 5535 5534 5535 5536 5538 5540 5545 5546 5546 5549 5551 5551 5553 5554 5556 5554 5554 5557 5561 5565 5564 5562 5563 5567 5569
5562 5565 5563 5564 5560 5560 5561 5559 5560 5547 5533 5525 5522 5522 5522 5530 5532 5541 5545 5555 5565 5563 5563 5554 5547 5539 5534 5533 5531 5529 5532 5537 5539 5537 5539 5543 5545 5546 5545 5541 5539 5541 5542 5542 5543 5543 5543 5545 5542 5540 5545 5551 5555 5555
5567 5568 5569 5569 5562 5557 5563 5562 5557 5541 5534 5529 5523 5526 5530 5530 5535 5538 5545 5551 5553 5553 5547 5536 5527 5513 5509 5510 5517 5525 5527 5528 5531 5533 5526 5528 5537 5537 5532 5534 5532 5529 5528 5527 5528 5528 5528 5530 5529 5531 5535 5537 5534 5532
5576 5575 5574 5573 5567 5565 5566 5557 5555 5546 5536 5530 5528 5526 5525 5522 5523 5533 5535 5540 5538 5537 5533 5513 5508 5504 5506 5507 5506 5509 5512 5516 5524 5527 5519 5518 5520 5523 5519 5518 5516 5516 5516 5516 5515 5514 5516 5517 5517 5517 5518 5518 5518 5514
5577 5578 5577 5574 5569 5566 5562 5556 5551 5545 5539 5539 5535 5530 5524 5521 5523 5522 5526 5526 5529 5519 5512 5502 5505 5506 5506 5509 5512 5512 5512 5507 5501 5504 5510 5512 5512 5516 5513 5510 5509 5506 5502 5497 5495 5495 5495 5492 5496 5500 5503 5502 5500 5499
5571 5574 5573 5574 5571 5568 5564 5558 5552 5544 5541 5538 5534 5528 5524 5521 5516 5516 5509 5506 5501 5502 5501 5495 5493 5492 5496 5496 5494 5493 5495 5501 5499 5498 5498 5498 5497 5496 5494 5491 5491 5489 5487 5482 5482 5481 5480 5479 5483 5487 5488 5486 5488 5483
5572 5572 5570 5570 5570 5558 5563 5558 5556 5549 5545 5540 5535 5535 5529 5522 5517 5512 5499 5497 5496 5493 5491 5493 5491 5486 5484 5485 5486 5485 5482 5484 5482 5479 5478 5477 5475 5472 5474 5476 5478 5477 5473 5471 5469 5469 5469 5472 5471 5470 5467 5466 5466 5465
5571 5568 5568 5563 5560 5556 5565 5564 5556 5548 5543 5535 5531 5532 5531 5527 5516 5503 5498 5494 5490 5487 5485 5482 5481 5476 5471 5468 5461 5461 5462 5464 5467 5465 5460 5458 5456 5452 5451 5450 5450 5449 5449 5449 5449 5448 5449 5449 5450 5450 5446 5442 5439 5438
5568 5564 5563 5549 5561 5562 5565 5562 5562 5557 5549 5539 5536 5529 5525 5518 5507 5501 5493 5486 5484 5483 5481 5480 5474 5465 5459 5453 5450 5451 5451 5450 5447 5443 5440 5440 5439 5439 5438 5437 5435 5433 5433 5433 5430 5429 5427 5425 5424 5424 5421 5418 5416 5413
5565 5569 5563 5567 5563 5565 5559 5560 5558 5556 5552 5549 5541 5527 5524 5515 5510 5499 5490 5488 5485 5482 5483 5477 5470 5461 5453 5448 5442 5439 5438 5437 5436 5432 5428 5427 5427 5426 5423 5422 5422 5423 5423 5422 5421 5418 5416 5413 5411 5408 5404 5401 5398 5394
5566 5573 5568 5561 5560 5557 5558 5556 5555 5551 5549 5543 5538 5530 5524 5514 5506 5495 5493 5490 5491 5488 5481 5474 5468 5459 5449 5442 5438 5435 5433 5431 5429 5424 5420 5418 5417 5416 5415 5412 5410 5410 5413 5414 5412 5409 5405 5402 5398 5394 5390 5386 5384 5381
5580 5572 5574 5569 5565 5561 5563 5559 5554 5547 5543 5537 5531 5526 5522 5512 5501 5497 5495 5495 5488 5482 5472 5465 5460 5454 5445 5438 5432 5428 5424 5421 5420 5418 5416 5412 5409 5407 5405 5405 5405 5407 5405 5404 5401 5398 5394 5389 5386 5383 5379 5375 5372 5370
5580 5574 5572 5571 5569 5567 5566 5560 5554 5547 5540 5534 5527 5518 5514 5508 5506 5503 5499 5493 5484 5477 5470 5460 5451 5446 5439 5432 5426 5421 5416 5412 5410 5405 5400 5393 5391 5392 5393 5392 5392 5391 5389 5388 5387 5385 5382 5377 5374 5371 5367 5363 5359 5357
5589 5579 5577 5576 5573 5571 5566 5561 5557 5552 5542 5537 5529 5522 5518 5514 5512 5505 5497 5487 5481 5477 5467 5458 5449 5443 5433 5426 5420 5416 5411 5407 5403 5398 5392 5388 5385 5382 5381 5380 5378 5377 5376 5374 5371 5369 5368 5365 5362 5358 5355 5352 5348 5346
5592 5585 5585 5581 5577 5573 5571 5567 5559 5553 5549 5542 5533 5525 5519 5514 5510 5502 5494 5487 5480 5471 5462 5453 5446 5440 5432 5423 5417 5412 5407 5406 5402 5398 5392 5386 5381 5378 5374 5371 5369 5368 5366 5364 5360 5357 5354 5351 5348 5346 5344 5342 5340 5338
5592 5589 5586 5582 5578 5574 5572 5566 5559 5552 5547 5539 5533 5528 5519 5512 5507 5499 5493 5485 5476 5468 5460 5452 5444 5438 5434 5428 5422 5415 5410 5403 5395 5390 5386 5379 5373 5369 5365 5361 5359 5357 5355 5353 5351 5348 5346 5343 5340 5338 5336 5334 5332 5331
5599 5597 5591 5584 5577 5573 5569 5563 5556 5552 5544 5540 5535 5527 5520 5513 5509 5497 5491 5485 5478 5470 5460 5452 5444 5437 5433 5428 5420 5412 5405 5397 5390 5384 5377 5371 5365 5361 5357 5354 5351 5349 5346 5343 5341 5340 5338 5336 5333 5331 5329 5327 5326 5325